, AK

(GMT )
Denali Park

Weather History for PAIN - September, 2012

Change the Weather History Date:

Saturday, September 22, 2012

  Actual Average Record
Temperature  
Mean Temperature 62 °F -  
Max Temperature 66 °F 46 °F 66 °F (2012)
Min Temperature 57 °F 27 °F 9 °F (1972)
Degree Days  
Heating Degree Days 4    
Growing Degree Days 12 (Base 50)    
Moisture  
Dew Point 41 °F    
Average Humidity 47    
Maximum Humidity 55    
Minimum Humidity 35    
Precipitation  
Precipitation 0.00 in - - ()
Sea Level Pressure  
Sea Level Pressure 29.45 in    
Wind  
Wind Speed 9 mph (South)    
Max Wind Speed 18 mph    
Max Gust Speed 36 mph    
Visibility 10 miles    
Events      
Averages and records for this station are not official NWS values.
T = Trace of Precipitation, MM = Missing Value Source: NWS Daily Summary

Daily Weather History Graph

Daily Weather History Graph

Search for Another Location

Airport or City:

Trip Planner

Search our weather history database for the weather conditions in past years. The results will help you decide how hot, cold, wet, or windy it might be!

Date:

Astronomy

Sep. 22, 2012 Rise Set
Actual Time 7:40 AM AKDT 7:53 PM AKDT
Civil Twilight 6:53 AM AKDT 8:40 PM AKDT
Nautical Twilight 5:56 AM AKDT 9:37 PM AKDT
Astronomical Twilight 4:50 AM AKDT 10:42 PM AKDT
Moon 5:18 PM AKDT (9/22) 11:01 PM AKDT (9/22)
Length of Visible Light 13h 47m
Length of Day
12h 13m
Waxing Crescent, 50% of the Moon is Illuminated
Sep 22
Waxing Crescent
Sep 29
Full
Oct 7
Last Quarter
Oct 15
New
Oct 21
First Quarter

Hourly Weather History & Observations

Time (AKDT) Temp. Dew Point Humidity Pressure Visibility Wind Dir Wind Speed Gust Speed Precip Events Conditions
12:16 AM 60.8 °F 44.6 °F 55% 29.63 in 10.0 mi South 8.1 mph 18.4 mph N/A   Partly Cloudy
12:36 AM 60.8 °F 44.6 °F 55% 29.62 in 10.0 mi SSW 10.4 mph 17.3 mph N/A   Scattered Clouds
12:56 AM 60.8 °F 44.6 °F 55% 29.62 in 10.0 mi South 11.5 mph 21.9 mph N/A   Scattered Clouds
1:16 AM 60.8 °F 44.6 °F 55% 29.63 in 10.0 mi South 11.5 mph 17.3 mph N/A   Mostly Cloudy
1:36 AM 60.8 °F 44.6 °F 55% 29.62 in 10.0 mi South 6.9 mph - N/A   Overcast
1:56 AM 60.8 °F 44.6 °F 55% 29.60 in 10.0 mi South 6.9 mph - N/A   Overcast
2:16 AM 62.6 °F 44.6 °F 52% 29.60 in 10.0 mi South 5.8 mph - N/A   Overcast
2:36 AM 62.6 °F 44.6 °F 52% 29.59 in 10.0 mi SSE 4.6 mph 19.6 mph N/A   Overcast
2:56 AM 62.6 °F 44.6 °F 52% 29.58 in 10.0 mi SSE 10.4 mph - N/A   Overcast
3:16 AM 62.6 °F 44.6 °F 52% 29.59 in 10.0 mi SSE 4.6 mph - N/A   Overcast
3:36 AM 62.6 °F 44.6 °F 52% 29.58 in 10.0 mi Calm Calm - N/A   Overcast
3:56 AM 62.6 °F 44.6 °F 52% 29.55 in 10.0 mi South 5.8 mph - N/A   Overcast
4:16 AM 62.6 °F 44.6 °F 52% 29.54 in 10.0 mi South 8.1 mph 17.3 mph N/A   Overcast
4:36 AM 62.6 °F 44.6 °F 52% 29.53 in 10.0 mi SSE 5.8 mph - N/A   Overcast
4:56 AM 62.6 °F 44.6 °F 52% 29.52 in 10.0 mi South 8.1 mph - N/A   Overcast
5:16 AM 62.6 °F 44.6 °F 52% 29.51 in 10.0 mi SSE 8.1 mph 18.4 mph N/A   Overcast
5:36 AM 62.6 °F 44.6 °F 52% 29.50 in 10.0 mi South 3.5 mph 17.3 mph N/A   Overcast
5:56 AM 62.6 °F 44.6 °F 52% 29.49 in 10.0 mi SSE 3.5 mph - N/A   Overcast
6:16 AM 62.6 °F 44.6 °F 52% 29.48 in 10.0 mi SSE 8.1 mph - N/A   Overcast
6:56 AM 62.6 °F 44.6 °F 52% 29.46 in 10.0 mi South 8.1 mph - N/A   Overcast
7:16 AM 62.6 °F 44.6 °F 52% 29.45 in 10.0 mi SW 3.5 mph - N/A   Overcast
7:36 AM 60.8 °F 44.6 °F 55% 29.45 in 10.0 mi SSW 5.8 mph - N/A   Overcast
7:56 AM 60.8 °F 44.6 °F 55% 29.44 in 10.0 mi SSW 8.1 mph - N/A   Overcast
8:16 AM 60.8 °F 44.6 °F 55% 29.45 in 10.0 mi SSW 6.9 mph - N/A   Overcast
8:36 AM 60.8 °F 44.6 °F 55% 29.45 in 10.0 mi SSW 8.1 mph - N/A   Overcast
8:56 AM 60.8 °F 44.6 °F 55% 29.44 in 10.0 mi SSW 4.6 mph - N/A   Overcast
9:16 AM 60.8 °F 42.8 °F 52% 29.43 in 10.0 mi South 9.2 mph 18.4 mph N/A   Overcast
9:36 AM 62.6 °F 42.8 °F 48% 29.43 in 10.0 mi SSW 10.4 mph 18.4 mph N/A   Overcast
9:56 AM 62.6 °F 42.8 °F 48% 29.42 in 10.0 mi South 10.4 mph 28.8 mph N/A   Overcast
10:16 AM 62.6 °F 42.8 °F 48% 29.42 in 10.0 mi SSW 10.4 mph 25.3 mph N/A   Overcast
10:36 AM 62.6 °F 42.8 °F 48% 29.42 in 10.0 mi South 10.4 mph 18.4 mph N/A   Overcast
10:56 AM 62.6 °F 42.8 °F 48% 29.42 in 10.0 mi South 10.4 mph 18.4 mph N/A   Overcast
11:16 AM 62.6 °F 41.0 °F 45% 29.42 in 10.0 mi South 11.5 mph 21.9 mph N/A   Overcast
11:36 AM 62.6 °F 41.0 °F 45% 29.42 in 10.0 mi South 9.2 mph 21.9 mph N/A   Mostly Cloudy
11:56 AM 62.6 °F 42.8 °F 48% 29.41 in 10.0 mi South 12.7 mph 21.9 mph N/A   Mostly Cloudy
12:16 PM 62.6 °F 42.8 °F 48% 29.40 in 10.0 mi South 13.8 mph 21.9 mph N/A   Partly Cloudy
12:36 PM 62.6 °F 42.8 °F 48% 29.41 in 10.0 mi SSW 12.7 mph 24.2 mph N/A   Partly Cloudy
12:56 PM 62.6 °F 42.8 °F 48% 29.40 in 10.0 mi South 16.1 mph 20.7 mph N/A   Scattered Clouds
1:16 PM 64.4 °F 41.0 °F 42% 29.38 in 10.0 mi South 13.8 mph 25.3 mph N/A   Mostly Cloudy
1:36 PM 64.4 °F 39.2 °F 40% 29.38 in 10.0 mi SSW 11.5 mph 25.3 mph N/A   Mostly Cloudy
1:56 PM 66.2 °F 39.2 °F 37% 29.37 in 10.0 mi South 15.0 mph 23.0 mph N/A   Overcast
2:16 PM 66.2 °F 37.4 °F 35% 29.36 in 10.0 mi SSE 13.8 mph 35.7 mph N/A   Scattered Clouds
2:36 PM 66.2 °F 39.2 °F 37% 29.37 in 10.0 mi South 13.8 mph 24.2 mph N/A   Partly Cloudy
2:56 PM 66.2 °F 39.2 °F 37% 29.36 in 10.0 mi South 15.0 mph 28.8 mph N/A   Mostly Cloudy
3:16 PM 64.4 °F 39.2 °F 40% 29.37 in 10.0 mi South 12.7 mph 23.0 mph N/A   Partly Cloudy
3:36 PM 64.4 °F 39.2 °F 40% 29.38 in 10.0 mi South 12.7 mph 26.5 mph N/A   Mostly Cloudy
3:56 PM 64.4 °F 39.2 °F 40% 29.38 in 10.0 mi South 11.5 mph 24.2 mph N/A   Overcast
4:16 PM 66.2 °F 39.2 °F 37% 29.38 in 10.0 mi SSE 11.5 mph - N/A   Mostly Cloudy
4:36 PM 66.2 °F 37.4 °F 35% 29.38 in 10.0 mi South 11.5 mph 20.7 mph N/A   Mostly Cloudy
4:56 PM 64.4 °F 37.4 °F 37% 29.39 in 10.0 mi South 15.0 mph 26.5 mph N/A   Scattered Clouds
5:16 PM 64.4 °F 37.4 °F 37% 29.39 in 10.0 mi South 9.2 mph 18.4 mph N/A   Partly Cloudy
5:36 PM 64.4 °F 37.4 °F 37% 29.39 in 10.0 mi South 6.9 mph 19.6 mph N/A   Clear
5:56 PM 64.4 °F 37.4 °F 37% 29.39 in 10.0 mi South 8.1 mph 20.7 mph N/A   Clear
6:16 PM 62.6 °F 37.4 °F 39% 29.39 in 10.0 mi South 6.9 mph - N/A   Partly Cloudy
6:36 PM 62.6 °F 37.4 °F 39% 29.39 in 10.0 mi South 9.2 mph 19.6 mph N/A   Clear
6:56 PM 62.6 °F 37.4 °F 39% 29.40 in 10.0 mi South 13.8 mph 29.9 mph N/A   Clear
7:16 PM 62.6 °F 35.6 °F 37% 29.40 in 10.0 mi South 9.2 mph 19.6 mph N/A   Partly Cloudy
7:36 PM 62.6 °F 35.6 °F 37% 29.39 in 10.0 mi South 8.1 mph 19.6 mph N/A   Mostly Cloudy
7:56 PM 62.6 °F 35.6 °F 37% 29.38 in 10.0 mi South 10.4 mph - N/A   Partly Cloudy
8:16 PM 60.8 °F 37.4 °F 42% 29.38 in 10.0 mi South 10.4 mph 23.0 mph N/A   Clear
8:36 PM 60.8 °F 39.2 °F 45% 29.38 in 10.0 mi SSW 18.4 mph 27.6 mph N/A   Clear
8:56 PM 59.0 °F 39.2 °F 48% 29.37 in 10.0 mi SSW 17.3 mph 28.8 mph N/A   Clear
9:16 PM 59.0 °F 39.2 °F 48% 29.38 in 10.0 mi SSW 12.7 mph 24.2 mph N/A   Clear
9:36 PM 57.2 °F 39.2 °F 51% 29.39 in 10.0 mi SW 12.7 mph 21.9 mph N/A   Clear
9:56 PM 57.2 °F 39.2 °F 51% 29.41 in 10.0 mi SW 9.2 mph 17.3 mph N/A   Partly Cloudy
10:16 PM 57.2 °F 39.2 °F 51% 29.40 in 10.0 mi SSW 10.4 mph 21.9 mph N/A   Partly Cloudy
10:36 PM 57.2 °F 39.2 °F 51% 29.39 in 10.0 mi SSW 11.5 mph 19.6 mph N/A   Clear
10:56 PM 57.2 °F 39.2 °F 51% 29.39 in 10.0 mi South 12.7 mph 23.0 mph N/A   Clear
11:16 PM 57.2 °F 39.2 °F 51% 29.38 in 10.0 mi SSW 16.1 mph 26.5 mph N/A   Clear
11:36 PM 57.2 °F 37.4 °F 48% 29.39 in 10.0 mi SSW 11.5 mph 20.7 mph N/A   Clear
11:56 PM 57.2 °F 37.4 °F 48% 29.40 in 10.0 mi SSW 8.1 mph 18.4 mph N/A   Partly Cloudy